Hereford, TX

5:05 PM CST on November 23, 2017 (GMT -0600)
Hereford Municipal

Weather History for KHRX - December, 2013

Change the Weather History Date:

Tuesday, December 3, 2013

  Actual Average (KCVN) Record (KCVN)
Temperature  
Mean Temperature 56 °F -  
Max Temperature 72 °F 54 °F 73 °F (1973)
Min Temperature 41 °F 25 °F 9 °F (1985)
Degree Days  
Heating Degree Days 8    
Growing Degree Days 6 (Base 50)    
Moisture  
Dew Point 23 °F    
Average Humidity 32    
Maximum Humidity 53    
Minimum Humidity 12    
Precipitation  
Precipitation 0.00 in - - ()
Sea Level Pressure  
Sea Level Pressure 29.61 in    
Wind  
Wind Speed 15 mph (WSW)    
Max Wind Speed 29 mph    
Max Gust Speed 30 mph    
Visibility 10 miles    
Events      
Averages and records for this station are not official NWS values.
T = Trace of Precipitation, MM = Missing Value Source: NWS Daily Summary

Daily Weather History Graph

Daily Weather History Graph

Search for Another Location

Airport or City:

Trip Planner

Search our weather history database for the weather conditions in past years. The results will help you decide how hot, cold, wet, or windy it might be!

Date:

Astronomy

Dec. 03, 2013 Rise Set
Actual Time 7:40 AM CST 5:37 PM CST
Civil Twilight 7:12 AM CST 6:05 PM CST
Nautical Twilight 6:41 AM CST 6:36 PM CST
Astronomical Twilight 6:10 AM CST 7:07 PM CST
Moon 8:12 AM CST (12/3) 6:42 PM CST (12/3)
Length of Visible Light 10h 52m
Length of Day
9h 57m
New Moon, 1% of the Moon is Illuminated
Dec 3
New Moon
Dec 9
First Quarter
Dec 17
Full
Dec 25
Last Quarter
Jan 1
New

Hourly Weather History & Observations

Time (CST) Temp. Windchill Dew Point Humidity Pressure Visibility Wind Dir Wind Speed Gust Speed Precip Events Conditions
12:15 AM 48.0 °F - 26.6 °F 43% 29.65 in 10.0 mi West 17.3 mph - N/A   Clear
12:35 AM 48.4 °F - 26.4 °F 42% 29.65 in 10.0 mi West 20.7 mph - N/A   Clear
12:55 AM 45.9 °F 40.0 °F 26.8 °F 47% 29.63 in 10.0 mi West 12.7 mph - N/A   Clear
1:15 AM 45.3 °F 39.7 °F 26.6 °F 48% 29.62 in 10.0 mi West 11.5 mph - N/A   Clear
1:35 AM 47.5 °F - 25.2 °F 42% 29.62 in 10.0 mi WSW 19.6 mph - N/A   Clear
1:55 AM 47.7 °F - 25.3 °F 42% 29.62 in 10.0 mi West 20.7 mph - N/A   Clear
2:15 AM 46.9 °F - 26.1 °F 44% 29.62 in 10.0 mi West 16.1 mph - N/A   Clear
2:35 AM 46.0 °F 39.0 °F 26.2 °F 46% 29.63 in 10.0 mi West 17.3 mph - N/A   Clear
2:55 AM 45.3 °F 39.3 °F 26.6 °F 48% 29.63 in 10.0 mi West 12.7 mph - N/A   Clear
3:15 AM 45.5 °F 40.8 °F 26.4 °F 47% 29.64 in 10.0 mi West 9.2 mph - N/A   Clear
3:35 AM 42.8 °F 38.6 °F 26.2 °F 52% 29.63 in 10.0 mi WNW 6.9 mph - N/A   Clear
3:55 AM 41.7 °F 35.6 °F 25.5 °F 53% 29.63 in 10.0 mi WNW 10.4 mph - N/A   Clear
4:15 AM 46.9 °F - 24.6 °F 42% 29.63 in 10.0 mi NW 9.2 mph - N/A   Clear
4:35 AM 44.2 °F 39.7 °F 25.0 °F 47% 29.62 in 10.0 mi West 8.1 mph - N/A   Clear
4:55 AM 45.0 °F 43.5 °F 25.7 °F 47% 29.62 in 10.0 mi NW 3.5 mph - N/A   Clear
5:15 AM 44.2 °F 41.8 °F 24.8 °F 46% 29.61 in 10.0 mi North 4.6 mph - N/A   Clear
5:35 AM 46.8 °F - 25.3 °F 43% 29.61 in 10.0 mi NW 11.5 mph - N/A   Clear
5:55 AM 46.0 °F 41.9 °F 25.3 °F 44% 29.60 in 10.0 mi West 8.1 mph - N/A   Clear
6:15 AM 46.6 °F - 25.3 °F 43% 29.62 in 10.0 mi West 3.5 mph - N/A   Clear
6:35 AM 46.2 °F 42.2 °F 25.2 °F 44% 29.62 in 10.0 mi WSW 8.1 mph - N/A   Clear
6:55 AM 45.5 °F 38.3 °F 25.5 °F 46% 29.62 in 10.0 mi West 17.3 mph - N/A   Clear
7:15 AM 43.7 °F 37.3 °F 25.3 °F 48% 29.63 in 10.0 mi West 12.7 mph - N/A   Clear
7:35 AM 43.7 °F 39.1 °F 25.2 °F 48% 29.63 in 10.0 mi West 8.1 mph - N/A   Clear
7:55 AM 45.1 °F 39.9 °F 24.6 °F 45% 29.64 in 10.0 mi West 10.4 mph - N/A   Clear
8:15 AM 47.1 °F - 25.7 °F 43% 29.65 in 10.0 mi WSW 18.4 mph - N/A   Clear
8:35 AM 49.1 °F - 26.2 °F 41% 29.66 in 10.0 mi WSW 18.4 mph 24.2 mph N/A   Clear
8:55 AM 50.9 °F - 25.7 °F 38% 29.67 in 10.0 mi WSW 19.6 mph 25.3 mph N/A   Clear
9:15 AM 53.6 °F - 25.0 °F 33% 29.67 in 10.0 mi WSW 23.0 mph 29.9 mph N/A   Clear
9:35 AM 53.2 °F - 25.3 °F 34% 29.69 in 10.0 mi WSW 21.9 mph - N/A   Clear
9:55 AM 54.9 °F - 25.9 °F 33% 29.69 in 10.0 mi WSW 16.1 mph - N/A   Clear
10:15 AM 56.7 °F - 25.9 °F 31% 29.70 in 10.0 mi WSW 18.4 mph 24.2 mph N/A   Clear
10:35 AM 58.3 °F - 25.7 °F 29% 29.70 in 10.0 mi WSW 21.9 mph - N/A   Clear
10:55 AM 61.2 °F - 24.6 °F 25% 29.69 in 10.0 mi West 20.7 mph 27.6 mph N/A   Clear
11:15 AM 63.0 °F - 23.4 °F 22% 29.69 in 10.0 mi WSW 21.9 mph 27.6 mph N/A   Clear
11:35 AM 64.4 °F - 22.3 °F 20% 29.68 in 10.0 mi West 20.7 mph 26.5 mph N/A   Clear
11:55 AM 65.8 °F - 20.5 °F 18% 29.66 in 10.0 mi West 21.9 mph 27.6 mph N/A   Clear
12:15 PM 67.3 °F - 18.7 °F 16% 29.65 in 10.0 mi West 24.2 mph 29.9 mph N/A   Clear
12:35 PM 68.0 °F - 19.2 °F 16% 29.63 in 10.0 mi North - - N/A   Clear
12:55 PM 68.4 °F - 18.7 °F 15% 29.62 in 10.0 mi West 23.0 mph 29.9 mph N/A   Clear
1:15 PM 69.8 °F - 18.1 °F 14% 29.61 in 10.0 mi North - - N/A   Clear
1:35 PM 70.2 °F - 17.4 °F 13% 29.60 in 10.0 mi WSW 28.8 mph - N/A   Clear
1:55 PM 70.2 °F - 16.7 °F 13% 29.60 in 10.0 mi North - - N/A   Clear
2:15 PM 70.7 °F - 16.5 °F 13% 29.60 in 10.0 mi North - - N/A   Clear
2:35 PM 71.4 °F - 16.9 °F 13% 29.58 in 10.0 mi North - - N/A   Clear
2:55 PM 71.8 °F - 16.5 °F 12% 29.58 in 10.0 mi WSW 20.7 mph - N/A   Clear
3:15 PM 71.2 °F - 16.7 °F 13% 29.58 in 10.0 mi North - - N/A   Clear
3:35 PM 72.0 °F - 16.3 °F 12% 29.58 in 10.0 mi North - - N/A   Clear
3:55 PM 72.5 °F - 16.3 °F 12% 29.58 in 10.0 mi WSW 28.8 mph - N/A   Clear
4:15 PM 71.8 °F - 16.5 °F 12% 29.58 in 10.0 mi North - - N/A   Clear
4:35 PM 70.2 °F - 16.3 °F 13% 29.58 in 10.0 mi SW 21.9 mph 28.8 mph N/A   Clear
4:55 PM 69.1 °F - 16.9 °F 14% 29.57 in 10.0 mi SW 18.4 mph 25.3 mph N/A   Clear
5:15 PM 68.5 °F - 17.8 °F 14% 29.56 in 10.0 mi SSW 11.5 mph 19.6 mph N/A   Clear
5:35 PM 64.9 °F - 18.0 °F 16% 29.57 in 10.0 mi SW 15.0 mph - N/A   Clear
5:55 PM 64.4 °F - 18.3 °F 17% 29.57 in 10.0 mi SW 15.0 mph - N/A   Clear
6:15 PM 61.9 °F - 19.6 °F 20% 29.57 in 10.0 mi SSW 13.8 mph - N/A   Clear
6:35 PM 60.1 °F - 21.2 °F 22% 29.58 in 10.0 mi SSW 13.8 mph - N/A   Clear
6:55 PM 58.3 °F - 21.4 °F 24% 29.58 in 10.0 mi SSW 8.1 mph - N/A   Clear
7:15 PM 52.9 °F - 22.1 °F 30% 29.58 in 10.0 mi South 6.9 mph - N/A   Clear
7:35 PM 54.7 °F - 21.0 °F 27% 29.58 in 10.0 mi SSW 15.0 mph - N/A   Clear
7:55 PM 56.5 °F - 21.0 °F 25% 29.58 in 10.0 mi SW 16.1 mph - N/A   Clear
8:15 PM 53.2 °F - 22.6 °F 30% 29.58 in 10.0 mi SW 12.7 mph - N/A   Clear
8:35 PM 54.0 °F - 22.1 °F 29% 29.58 in 10.0 mi SW 11.5 mph - N/A   Clear
8:55 PM 52.0 °F - 22.8 °F 32% 29.58 in 10.0 mi SSW 9.2 mph - N/A   Clear
9:15 PM 50.5 °F - 23.4 °F 35% 29.58 in 10.0 mi SW 10.4 mph - N/A   Clear
9:35 PM 47.3 °F - 23.5 °F 39% 29.58 in 10.0 mi West 5.8 mph - N/A   Clear
9:55 PM 46.2 °F 42.7 °F 23.4 °F 41% 29.57 in 10.0 mi WSW 6.9 mph - N/A   Clear
10:15 PM 44.8 °F - 23.0 °F 42% 29.57 in 10.0 mi Calm Calm - N/A   Clear
10:35 PM 48.0 °F - 23.4 °F 38% 29.58 in 10.0 mi SSW 9.2 mph - N/A   Clear
10:55 PM 49.3 °F - 22.8 °F 35% 29.58 in 10.0 mi SW 8.1 mph - N/A   Clear
11:15 PM 46.8 °F - 23.4 °F 40% 29.58 in 10.0 mi SW 10.4 mph - N/A   Clear
11:35 PM 45.5 °F 40.3 °F 24.1 °F 43% 29.58 in 10.0 mi SW 10.4 mph - N/A   Clear
11:55 PM 48.2 °F - 23.4 °F 38% 29.58 in 10.0 mi SSW 11.5 mph - N/A   Clear